Location: Casteau
(50.5142°N, 4.0161°E)
Time: 03:49:27
(UTC+00:00)

USA 234 - Pass Details

Date: 18 September 2020
Orbit: 1102 x 1106 km, 123.0° (Epoch: 16 October)

Event Time Altitude Azimuth Distance (km) Brightness Sun altitude
Rises 22:00:06 0° 63° (ENE) 3,925 6.1 -34.0°
Reaches altitude 10° 22:02:36 10° 60° (ENE) 2,967 5.5 -34.2°
Enters shadow 22:03:22 14° 59° (ENE) 2,685 5.3 -34.3°
Exits shadow 22:06:55 42° 42° (NE) 1,520 4.0 -34.6°
Maximum altitude 22:09:03 63° 342° (NNW) 1,222 3.5 -34.7°
Drops below altitude 10° 22:15:29 10° 263° (W) 2,964 5.7 -35.2°
Sets 22:17:59 0° 260° (W) 3,921 6.3 -35.4°
